Location: Baumgartsau
(48.4586°N, 14.0864°E)
Time: 09:13:07
(UTC+00:00)

Cosmos 1340 Rocket - Pass Details

Date: 09 April 2020
Orbit: 529 x 559 km, 81.2° (Epoch: 01 June)

Event Time Altitude Azimuth Distance (km) Brightness Sun altitude
Rises 19:04:49 0° 193° (SSW) 2,726 6.2 -12.9°
Reaches altitude 10° 19:06:59 10° 195° (SSW) 1,833 5.3 -13.3°
Maximum altitude 19:11:01 78° 281° (W) 570 2.9 -13.8°
Drops below altitude 10° 19:15:04 10° 9° (N) 1,832 5.8 -14.4°
Sets 19:17:15 0° 11° (N) 2,725 6.6 -14.7°
